Location: Amherst
(42.5000°N, 72.5000°W)
Time: 22:39:46
(UTC-04:00)

ISS - Visible Passes

Search period start: 23 March 2019 00:00
Search period end: 02 April 2019 00:00
Orbit: 408 x 411 km, 51.6° (Epoch: 23 March)

Date Brightness Start Highest point End Pass type
(mag) Time Alt. Az. Time Alt. Az. Time Alt. Az.
23 Mar -3.9 19:57:15 10° SW 20:00:33 76° SE 20:03:41 11° ENE visible
23 Mar -1.2 21:34:40 10° WNW 21:36:28 21° NW 21:36:28 21° NW visible
24 Mar -2.1 20:43:37 10° W 20:46:37 31° NNW 20:48:17 20° NNE visible
25 Mar -2.8 19:52:40 10° WSW 19:55:51 47° NNW 19:59:04 10° NE visible
25 Mar -1.2 21:30:39 10° NW 21:32:45 18° NNW 21:32:45 18° NNW visible
26 Mar -1.5 20:39:32 10° WNW 20:42:08 21° NNW 20:44:18 12° NNE visible
27 Mar -1.9 19:48:24 10° W 19:51:17 27° NNW 19:54:09 10° NE visible
27 Mar -1.2 21:26:26 10° NW 21:28:31 17° N 21:28:31 17° N visible
28 Mar -1.3 20:35:25 10° NW 20:37:43 17° N 20:39:54 10° NE visible
28 Mar -0.2 22:12:31 10° NW 22:12:40 11° NW 22:12:40 11° NW visible
29 Mar -1.5 19:44:17 10° WNW 19:46:46 19° NNW 19:49:15 10° NE visible
29 Mar -1.4 21:21:50 10° NW 21:24:00 18° N 21:24:00 18° N visible
30 Mar -1.4 20:31:01 10° NW 20:33:16 17° N 20:35:18 11° NE visible
30 Mar -0.5 22:07:33 10° NW 22:08:04 13° NW 22:08:04 13° NW visible
31 Mar -1.4 19:40:03 10° NW 19:42:17 17° N 19:44:32 10° NE visible
31 Mar -1.9 21:16:55 10° NW 21:19:21 24° N 21:19:21 24° N visible
01 Apr -1.7 20:26:14 10° NW 20:28:45 20° NNE 20:30:37 13° NE visible
01 Apr -0.8 22:02:32 10° NW 22:03:22 17° NW 22:03:22 17° NW visible
